Location: Shepherdstown, WV
(39.4326°N, 77.8042°W)
Time: 01:13:42
(UTC-04:00)

Tiangong - Pass Details

Date: 27 June 2021
Orbit: 374 x 386 km, 41.5° (Epoch: 27 July)

Event Time Altitude Azimuth Distance (km) Brightness Sun altitude
Exits shadow 04:15:18 12° 286° (WNW) 1,294 3.5 -14.4°
Maximum altitude 04:18:10 63° 8° (N) 425 1.4 -14.0°
Drops below altitude 10° 04:21:17 10° 90° (E) 1,390 4.5 -13.6°
Sets 04:23:22 0° 94° (E) 2,245 5.6 -13.3°
